Cloud_Cover
100 98 100 100 82 100 100 100 90 5 13 71 26 12 8 1 5 0 66 98 100 38 60 0 9 8 9 21 17 16 2 6 2 0 0 0 0 11 0 0 0 0 0 0 5 1 2 2 0
100 100 100 100 85 18 95 57 18 5 6 99 100 100 81 6 5 4 20 0 9 0 0 0 0 0 0 0 0 0 0 20 25 20 19 8 0 0 0 0 0 2 0 7 92 77 77 91 34
100 100 100 100 65 18 100 100 100 98 100 100 100 52 6 5 5 5 2 0 0 0 0 0 0 0 0 0 0 0 0 0 0 4 31 31 19 11 9 2 0 0 0 0 0 9 1 2 1
27 100 100 100 100 100 100 100 97 46 84 98 73 6 5 5 1 5 13 1 0 0 0 0 0 0 0 0 0 0 0 0 0 0 0 0 0 0 14 10 0 0 0 0 0 2 0 0 0
4 28 100 100 100 100 100 69 76 100 59 100 100 99 13 5 5 5 2 5 5 4 0 0 0 0 0 0 0 0 0 0 0 0 0 0 0 0 0 0 0 0 3 10 8 2 0 0 0
0 0 3 92 100 100 100 98 100 100 100 100 96 100 44 74 11 22 70 45 5 17 4 0 0 0 0 0 0 0 0 0 0 0 0 0 0 0 0 0 0 0 7 8 10 4 0 0 1
4 5 0 3 71 100 95 100 100 100 100 100 100 85 69 100 100 99 100 99 92 7 4 0 0 0 0 0 0 0 0 0 0 0 0 0 0 0 0 0 0 0 4 3 0 0 2 17 5
0 5 2 4 9 80 10 21 100 100 86 100 100 82 100 100 100 100 100 42 89 45 5 2 0 0 0 0 0 0 0 0 0 0 0 5 4 1 0 0 0 3 4 2 0 0 0 0 0
0 0 0 5 4 94 5 54 88 100 100 100 100 96 100 100 99 19 5 1 3 5 5 1 0 0 0 0 0 0 0 5 0 0 0 0 0 0 0 0 0 0 0 0 0 0 0 0 0
0 0 0 45 67 13 5 73 98 79 100 100 100 100 100 69 71 5 51 5 3 0 0 0 6 16 8 5 1 2 0 1 5 0 0 0 0 0 0 0 0 0 0 0 0 0 0 0 0
0 0 1 88 100 13 11 73 100 54 8 62 33 75 76 100 72 35 76 6 0 5 86 99 100 100 20 16 73 5 5 5 0 0 0 0 0 0 0 0 0 0 0 0 0 0 0 0 0
0 0 9 100 88 69 98 7 5 70 5 5 4 5 96 99 55 5 5 1 5 6 58 100 100 55 5 12 4 4 4 1 0 0 0 0 0 0 0 0 0 0 0 0 0 0 0 0 0
0 0 0 69 99 20 47 45 7 21 5 35 6 3 6 16 14 58 100 100 100 40 46 5 4 1 4 5 5 5 3 1 0 0 0 0 0 0 0 0 0 0 0 0 0 0 0 0 0
0 0 0 6 97 100 96 100 100 84 36 100 100 100 100 100 100 100 77 100 100 100 100 100 68 44 6 5 5 3 3 0 0 0 0 0 0 0 0 0 0 0 0 0 0 0 0 0 0
0 0 0 16 58 100 100 100 100 100 100 94 92 82 74 72 99 54 100 100 100 100 100 100 100 6 4 0 0 0 0 0 0 0 0 0 0 0 0 0 0 0 0 0 0 0 0 0 0
0 0 0 0 3 46 100 100 100 100 100 100 100 100 100 100 100 100 100 100 98 63 7 5 5 2 0 0 0 0 0 0 0 0 0 0 0 0 0 0 0 0 0 0 0 0 0 0 0
0 0 0 0 0 3 90 100 100 100 100 100 100 98 96 70 48 94 96 28 5 5 5 5 4 0 0 0 0 0 0 0 0 0 0 0 0 0 0 0 0 0 0 0 0 0 0 0 0
0 0 0 0 0 5 15 86 99 91 100 100 100 100 94 74 100 74 26 5 5 5 5 4 0 0 0 0 0 0 0 0 0 0 0 0 0 0 0 0 0 0 0 0 0 0 0 0 0
0 0 0 0 0 0 0 9 27 96 58 98 100 100 100 100 100 33 5 5 5 11 5 0 0 0 0 0 0 0 0 0 0 0 0 0 0 0 0 0 0 0 0 0 0 0 0 0 0
0 0 0 0 0 0 0 0 0 3 5 5 45 91 100 100 91 57 10 6 5 5 3 0 0 0 0 0 0 0 0 0 0 0 0 0 0 0 0 0 0 0 0 0 0 0 0 0 0
0 0 0 0 0 0 0 0 0 0 0 0 10 41 64 5 79 87 96 98 5 5 2 0 0 0 0 0 0 0 0 0 0 0 0 0 0 0 0 0 0 0 0 0 0 0 0 0 0
0 0 0 0 0 0 0 0 0 0 0 0 0 12 36 5 20 91 100 25 15 0 0 0 0 0 0 0 0 0 0 0 0 0 0 0 0 0 0 0 0 0 0 0 0 0 0 5 3
0 0 0 0 0 0 0 0 0 0 0 0 0 0 0 0 75 8 5 2 0 0 0 0 0 0 0 0 0 0 0 0 0 0 0 0 0 0 0 0 0 0 0 5 4 0 5 8 10
0 0 0 0 0 1 0 0 0 0 0 0 0 0 0 0 0 1 0 0 0 0 0 0 0 0 0 0 0 0 0 0 0 0 0 0 0 0 0 5 3 5 8 14 6 5 5 5 6
0 0 27 2 3 0 0 0 0 0 0 1 0 0 0 0 0 0 0 0 0 0 0 0 0 0 0 0 0 0 0 0 0 1 3 0 1 2 5 48 99 98 94 82 93 89 97 94 42
0 0 4 0 3 2 0 0 0 4 18 5 1 0 0 0 0 0 0 0 0 0 0 0 0 0 0 0 0 0 0 0 3 5 79 74 100 100 100 100 100 100 100 100 100 100 51 72 86
0 0 0 0 5 1 2 0 0 3 4 1 0 0 0 0 0 0 0 0 0 0 0 0 0 0 0 0 0 0 2 37 100 100 100 100 100 100 100 100 100 98 98 53 28 50 72 54 72
2 0 0 4 0 0 2 0 0 0 0 0 0 0 0 0 0 0 0 0 0 0 0 0 0 0 0 0 0 0 0 0 4 42 19 14 5 5 26 52 30 60 65 33 22 24 59 86 81
0 0 0 0 0 0 0 0 0 0 0 0 0 0 0 0 0 0 0 0 0 0 0 0 0 0 0 0 0 0 4 5 57 93 100 100 100 95 93 100 100 100 100 100 73 66 100 100 75
5 3 2 3 5 0 0 0 0 0 0 0 0 4 0 0 0 0 0 0 0 0 0 0 0 0 0 3 8 92 100 100 100 100 100 100 100 100 100 100 100 38 63 98 77 77 62 38 17